Tracking 19192 objects as of 21-Jun-2018
HD Live streaming from Space Station
objects crossing your sky now

FENGYUN 1C DEB

Track FENGYUN 1C DEB now!
10-day predictions


NORAD ID: 31338
Int'l Code: 1999-025BQS
Perigee: 833.3 km
Apogee: 964.8 km
Inclination: 98.9 °
Period: 102.8 minutes
Semi major axis: 7270 km
RCS: 0.0099 m2 (small)
Launch date: May 10, 1999
Source: People's Republic of China (PRC)
Launch site: Taiyaun Space Center, China (TSC)

Note: This is SATELLITE DEBRIS
aabbcc
Your satellite tracking list
Your tracking list is empty




NASA's NSSDC Master Catalog

Two Line Element Set (TLE):
1 31338U 99025BQS 18171.91455728  .00000502  00000-0  35438-3 0  9995
2 31338  98.8628  52.0271 0090478 222.9104 136.4978 14.00542456571615
Source of the keplerian elements: AFSPC